View from above orbital plane
|
View from above satellite
|
Ground track
|
The orbit data is extracted from the following two-line orbital elements,
1 24298U 96051B 21058.45870116 -.00000145 00000-0 -52129-4 0 9999
2 24298 70.8346 92.9221 0016781 324.8703 35.1309 14.12465173262364
Epoch (UTC): | 27 February 2021 11:00:31 |
Eccentricity: | 0.0016781 |
inclination: | 70.8346° |
perigee height: | 839 km |
apogee height: | 863 km |
right ascension of ascending node: | 92.9221° |
argument of perigee: | 324.8703° |
revolutions per day: | 14.12465173 |
mean anomaly at epoch: | 35.1309° |
orbit number at epoch: | 26236 |
The dashed part of the orbit path shows where the satellite is in the earth's shadow,
|
|